Flag for Germany Weather past 2 weeks in Memmingen, Bavaria, Germany

Now
39 °F

Light freezing rain. Overcast.


Feels Like: 36 °F
Forecast: 26 / 45 °F
Wind: 5 mph from West

Location: Kempten

Current Time: Oct 23, 2014 at 7:36:01 AM

Latest Report: Oct 23, 2014 at 7:00 AM


Visibility: 3 mi

Pressure: 30.24 "Hg

Humidity: 91%

Dew point: 37 °F

Location of MemmingenLocation

Historic Weather in Memmingen — Graph

°F

Memmingen temperature yesterday

Maximum temperature yesterday: 43 °F (at 12:00 AM)
Minimum temperature yesterday: 36 °F (at 3:00 PM)
Average temperature yesterday: 39 °F

Past Weeks' High & Low Weather Summary

 TemperatureHumidityPressure
High79 °F (Oct 9, 2:00 PM)99% (Oct 18, 3:00 AM)30.28 "Hg (Oct 18, 3:00 AM)
Low36 °F (Oct 22, 3:00 PM)25% (Oct 9, 4:00 PM)29.69 "Hg (Oct 21, 8:00 PM)
Average55 °F82%29.97 "Hg
* Reported Oct 8 6:00 AM — Oct 23 6:00 AM, Memmingen, Weather by CustomWeather, © 2014

Note: Actual official high and low records may vary slightly from our data, if they occured in-between our weather recording intervals... More about our weather records

Advertising

Memmingen weather history for previous 24 hours

 ConditionsComfort  
Time TempWeatherWind HumidityBarometerVisibility
6:00 AM
Oct 23
39 °FLight rain. Overcast.2 mph93%30.22 "Hg6 mi
5:00 AM39 °FLight freezing rain. Overcast.3 mph92%30.20 "Hg2 mi
4:00 AM40 °FLight freezing rain. Overcast.5 mph90%30.19 "Hg5 mi
3:00 AM40 °FRain. Overcast.3 mph91%30.18 "Hg2 mi
2:00 AM39 °FRain. Overcast.3 mph92%30.16 "Hg2 mi
1:00 AM38 °FRain. Overcast.3 mph95%30.16 "Hg2 mi
12:00 AM37 °FRain. Overcast.2 mph95%30.17 "Hg2 mi
10:00 PM
Oct 22
37 °FLight rain. Overcast.5 mph92%30.14 "Hg5 mi
9:00 PM37 °FLight rain. Overcast.6 mph92%30.14 "Hg4 mi
8:00 PM37 °FLight rain. Overcast.6 mph92%30.13 "Hg5 mi
7:00 PM37 °FLight rain. Overcast.3 mph93%30.14 "Hg3 mi
6:00 PM37 °FLight rain. Overcast.3 mph93%30.14 "Hg4 mi
4:00 PM37 °FLight rain. Overcast.3 mph93%30.14 "Hg5 mi
3:00 PM36 °FLight freezing rain. Overcast.5 mph92%30.15 "Hg8 mi
2:00 PM38 °FLight rain. Haze.6 mph84%30.14 "Hg10 mi
1:00 PM39 °FLight rain. Overcast.5 mph84%30.13 "Hg11 mi
12:00 PM39 °FDrizzle. Overcast.7 mph80%30.14 "Hg16 mi
10:00 AM38 °FLight freezing rain. Overcast.6 mph78%30.11 "Hg13 mi
9:00 AM39 °FDrizzle. Overcast.5 mph79%30.10 "Hg22 mi
8:00 AM38 °FLight rain. Overcast.5 mph83%30.08 "Hg17 mi
7:00 AM40 °FOvercast.6 mph75%30.02 "Hg34 mi
Weather by CustomWeather, © 2014

See weather overviewHow to use our weather pages